• In Deutschland
  • Länderverzeichnis
  • Für 7 Tage
  • Wassertemperatur
  • Satellitenkarten
  • Wetterkarte
  • Widgets
  • user-avatar
    Anmelden

    Stündliche Wetter Filderstadt

    Heute, 23 September, Sonntag

    Zeit Temperatur Niederschläge Wind Luftdruck Luftfeuchtigkeit
    00:00 +12°C° 0.2 mm 1 m/S 730 mmHg 78%
    01:00 +12°C° 0 mm 3 m/S 730 mmHg 83%
    02:00 +12°C° 0.4 mm 3 m/S 729 mmHg 84%
    03:00 +12°C° 0.4 mm 3 m/S 729 mmHg 85%
    04:00 +13°C° 0.4 mm 3 m/S 728 mmHg 86%
    05:00 +13°C° 0.5 mm 4 m/S 728 mmHg 85%
    06:00 +14°C° 0.5 mm 4 m/S 727 mmHg 84%
    07:00 +14°C° 0 mm 4 m/S 727 mmHg 82%
    08:00 +15°C° 0.2 mm 5 m/S 727 mmHg 83%
    09:00 +16°C° 0.2 mm 5 m/S 727 mmHg 84%
    10:00 +16°C° 0.2 mm 6 m/S 727 mmHg 85%
    11:00 +18°C° 0.2 mm 7 m/S 726 mmHg 81%
    12:00 +21°C° 0.2 mm 8 m/S 726 mmHg 76%
    13:00 +23°C° 0 mm 6 m/S 725 mmHg 75%
    14:00 +23°C° 0.1 mm 7 m/S 724 mmHg 72%
    15:00 +23°C° 0.1 mm 8 m/S 723 mmHg 70%
    16:00 +24°C° 0.1 mm 10 m/S 722 mmHg 68%
    17:00 +22°C° 1.8 mm 10 m/S 723 mmHg 74%
    18:00 +19°C° 1.8 mm 10 m/S 723 mmHg 81%
    19:00 +18°C° 1.8 mm 9 m/S 724 mmHg 87%
    20:00 +15°C° 2.4 mm 8 m/S 725 mmHg 88%
    21:00 +12°C° 2.4 mm 7 m/S 727 mmHg 89%
    22:00 +10°C° 2.4 mm 6 m/S 728 mmHg 90%
    23:00 +9°C° 0.1 mm 5 m/S 730 mmHg 90%

    Morgen, 24 September, Montag

    Zeit Temperatur Niederschläge Wind Luftdruck Luftfeuchtigkeit
    00:00 +10°C° 0.1 mm 4 m/S 732 mmHg 90%
    01:00 +9°C° 0.1 mm 3 m/S 733 mmHg 90%
    02:00 +9°C° 0.1 mm 3 m/S 734 mmHg 91%
    03:00 +8°C° 0.1 mm 2 m/S 735 mmHg 91%
    04:00 +8°C° 0.1 mm 2 m/S 736 mmHg 92%
    05:00 +8°C° 0 mm 2 m/S 737 mmHg 92%
    06:00 +7°C° 0 mm 2 m/S 737 mmHg 93%
    07:00 +7°C° 0 mm 2 m/S 738 mmHg 93%
    08:00 +8°C° 0 mm 2 m/S 739 mmHg 86%
    09:00 +9°C° 0 mm 3 m/S 739 mmHg 79%
    10:00 +10°C° 0 mm 3 m/S 740 mmHg 71%
    11:00 +11°C° 0 mm 3 m/S 740 mmHg 63%
    12:00 +12°C° 0 mm 3 m/S 740 mmHg 55%
    13:00 +13°C° 0 mm 3 m/S 740 mmHg 48%
    14:00 +13°C° 0 mm 3 m/S 739 mmHg 47%
    15:00 +13°C° 0 mm 3 m/S 739 mmHg 47%
    16:00 +13°C° 0 mm 3 m/S 739 mmHg 46%
    17:00 +13°C° 0 mm 2 m/S 739 mmHg 52%
    18:00 +10°C° 0 mm 2 m/S 739 mmHg 57%
    19:00 +9°C° 0 mm 1 m/S 740 mmHg 63%
    20:00 +9°C° 0 mm 1 m/S 740 mmHg 64%
    21:00 +8°C° 0 mm 1 m/S 740 mmHg 65%
    22:00 +8°C° 0 mm 1 m/S 741 mmHg 67%
    23:00 +8°C° 0 mm 1 m/S 741 mmHg 70%

    übermorgen, 25 September, Dienstag

    Zeit Temperatur Niederschläge Wind Luftdruck Luftfeuchtigkeit
    00:00 +7°C° 0 mm 1 m/S 741 mmHg 73%
    01:00 +7°C° 0 mm 1 m/S 741 mmHg 76%
    02:00 +6°C° 0 mm 1 m/S 741 mmHg 79%
    03:00 +6°C° 0 mm 1 m/S 741 mmHg 82%
    04:00 +6°C° 0 mm 1 m/S 741 mmHg 85%
    05:00 +5°C° 0 mm 2 m/S 741 mmHg 85%
    06:00 +5°C° 0 mm 2 m/S 741 mmHg 85%
    07:00 +5°C° 0 mm 2 m/S 741 mmHg 86%
    08:00 +7°C° 0 mm 3 m/S 741 mmHg 76%
    09:00 +9°C° 0 mm 3 m/S 742 mmHg 67%
    10:00 +11°C° 0 mm 4 m/S 742 mmHg 57%
    11:00 +12°C° 0 mm 4 m/S 741 mmHg 53%
    12:00 +13°C° 0 mm 4 m/S 741 mmHg 49%
    13:00 +14°C° 0 mm 4 m/S 741 mmHg 46%
    14:00 +13°C° 0 mm 4 m/S 741 mmHg 46%
    15:00 +13°C° 0 mm 4 m/S 740 mmHg 47%
    16:00 +13°C° 0 mm 4 m/S 740 mmHg 48%
    17:00 +12°C° 0 mm 4 m/S 740 mmHg 54%
    18:00 +10°C° 0 mm 3 m/S 740 mmHg 60%
    19:00 +8°C° 0 mm 3 m/S 740 mmHg 65%
    20:00 +7°C° 0 mm 3 m/S 740 mmHg 66%
    21:00 +7°C° 0 mm 3 m/S 741 mmHg 67%
    22:00 +5°C° 0 mm 3 m/S 741 mmHg 68%
    23:00 +6°C° 0 mm 2 m/S 740 mmHg 68%

    26 September, Mittwoch

    Zeit Temperatur Niederschläge Wind Luftdruck Luftfeuchtigkeit
    00:00 +5°C° 0 mm 2 m/S 740 mmHg 69%
    01:00 +5°C° 0 mm 2 m/S 740 mmHg 69%
    02:00 +4°C° 0 mm 2 m/S 740 mmHg 70%
    03:00 +4°C° 0 mm 2 m/S 739 mmHg 72%
    04:00 +3°C° 0 mm 2 m/S 739 mmHg 73%
    05:00 +4°C° 0 mm 1 m/S 739 mmHg 74%
    06:00 +4°C° 0 mm 1 m/S 739 mmHg 74%
    07:00 +5°C° 0 mm 1 m/S 739 mmHg 75%
    08:00 +7°C° 0 mm 1 m/S 739 mmHg 67%
    09:00 +10°C° 0 mm 1 m/S 739 mmHg 59%
    10:00 +13°C° 0 mm 1 m/S 739 mmHg 51%
    11:00 +15°C° 0 mm 1 m/S 739 mmHg 47%
    12:00 +18°C° 0 mm 1 m/S 739 mmHg 43%
    13:00 +18°C° 0 mm 0 m/S 739 mmHg 40%
    14:00 +20°C° 0 mm 1 m/S 739 mmHg 40%
    15:00 +20°C° 0 mm 1 m/S 739 mmHg 41%
    16:00 +20°C° 0 mm 1 m/S 738 mmHg 41%
    17:00 +16°C° 0 mm 0 m/S 738 mmHg 48%
    18:00 +13°C° 0 mm 0 m/S 738 mmHg 54%
    19:00 +11°C° 0 mm 0 m/S 738 mmHg 61%
    20:00 +10°C° 0 mm 0 m/S 738 mmHg 63%
    21:00 +10°C° 0 mm 0 m/S 738 mmHg 64%
    22:00 +10°C° 0 mm 1 m/S 738 mmHg 66%
    23:00 +10°C° 0 mm 1 m/S 738 mmHg 67%

    27 September, Donnerstag

    Zeit Temperatur Niederschläge Wind Luftdruck Luftfeuchtigkeit
    00:00 +10°C° 0 mm 1 m/S 738 mmHg 68%
    01:00 +10°C° 0 mm 1 m/S 738 mmHg 70%
    02:00 +10°C° 0 mm 1 m/S 738 mmHg 70%
    03:00 +9°C° 0 mm 1 m/S 738 mmHg 71%
    04:00 +9°C° 0 mm 1 m/S 737 mmHg 72%
    05:00 +9°C° 0 mm 1 m/S 737 mmHg 72%
    06:00 +9°C° 0 mm 1 m/S 737 mmHg 72%
    07:00 +9°C° 0 mm 1 m/S 737 mmHg 72%
    08:00 +12°C° 0 mm 1 m/S 737 mmHg 64%
    09:00 +15°C° 0 mm 1 m/S 737 mmHg 56%
    10:00 +19°C° 0 mm 1 m/S 737 mmHg 48%
    11:00 +21°C° 0 mm 1 m/S 737 mmHg 45%
    12:00 +22°C° 0 mm 1 m/S 736 mmHg 42%
    13:00 +24°C° 0 mm 1 m/S 736 mmHg 38%
    14:00 +24°C° 0 mm 1 m/S 735 mmHg 40%
    15:00 +24°C° 0 mm 1 m/S 735 mmHg 42%
    16:00 +23°C° 0 mm 1 m/S 734 mmHg 44%
    17:00 +21°C° 0 mm 1 m/S 734 mmHg 51%
    18:00 +16°C° 0 mm 0 m/S 734 mmHg 58%
    19:00 +13°C° 0 mm 0 m/S 733 mmHg 66%
    20:00 +13°C° 0 mm 0 m/S 733 mmHg 67%
    21:00 +14°C° 0 mm 1 m/S 733 mmHg 68%
    22:00 +13°C° 0 mm 1 m/S 733 mmHg 69%
    23:00 +13°C° 0 mm 1 m/S 733 mmHg 70%

    28 September, Freitag

    Zeit Temperatur Niederschläge Wind Luftdruck Luftfeuchtigkeit
    00:00 +13°C° 0 mm 1 m/S 733 mmHg 72%
    01:00 +12°C° 0 mm 1 m/S 733 mmHg 73%
    02:00 +12°C° 0 mm 1 m/S 733 mmHg 76%
    03:00 +12°C° 0 mm 1 m/S 732 mmHg 78%
    04:00 +11°C° 0 mm 1 m/S 732 mmHg 80%
    05:00 +10°C° 0 mm 0 m/S 732 mmHg 81%
    06:00 +10°C° 0 mm 0 m/S 732 mmHg 82%
    07:00 +10°C° 0 mm 0 m/S 732 mmHg 83%
    08:00 +12°C° 0 mm 0 m/S 732 mmHg 75%
    09:00 +15°C° 0 mm 0 m/S 732 mmHg 67%
    10:00 +19°C° 0 mm 1 m/S 732 mmHg 58%
    11:00 +20°C° 0 mm 1 m/S 732 mmHg 55%
    12:00 +21°C° 0 mm 1 m/S 732 mmHg 51%
    13:00 +22°C° 0 mm 1 m/S 731 mmHg 47%
    14:00 +21°C° 0 mm 2 m/S 731 mmHg 48%
    15:00 +21°C° 0 mm 2 m/S 731 mmHg 49%
    16:00 +20°C° 0 mm 2 m/S 731 mmHg 50%
    17:00 +18°C° 0 mm 2 m/S 731 mmHg 57%
    18:00 +16°C° 0 mm 2 m/S 731 mmHg 65%
    19:00 +14°C° 0 mm 2 m/S 731 mmHg 72%
    20:00 +12°C° 0 mm 3 m/S 731 mmHg 76%
    21:00 +12°C° 0 mm 3 m/S 732 mmHg 80%
    22:00 +11°C° 0 mm 3 m/S 732 mmHg 85%
    23:00 +11°C° 0 mm 3 m/S 732 mmHg 86%
    Mehr zeigen